{"data":{"norad_id":63244,"intl_designator":"2025-052AL","name":"PANDORE","alt_names":[],"object_type":"PAYLOAD","status":"ACTIVE","operator":null,"country":"FR","launch_date":"2025-03-15","launch_site_code":"AFWTR","launch_vehicle":null,"mission":null,"orbit_class":"UNKNOWN","rcs_meters":null,"size_class":null,"mass_kg":null,"dimensions":null,"purposes":[],"wikipedia_slug":null,"has_3d_model":false,"image_url":null,"decayed_at":null,"tle_current":{"epoch":"2026-05-25T03:04:15.864960Z","epoch_age_seconds":64058,"freshness":"FRESH","line1":"1 63244U 25052AL  26145.12796140  .00002195  00000+0  20654-3 0  9997","line2":"2 63244  97.6930  36.9270 0003101 279.0479  81.0391 14.94878807 65161","mean_motion":14.94878807,"eccentricity":0.0003101,"inclination_deg":97.693,"raan_deg":36.927,"arg_perigee_deg":279.0479,"mean_anomaly_deg":81.0391,"bstar":0.00020654,"rev_number":6516,"period_min":96.328879187863,"perigee_km":580.59037746856,"apogee_km":584.90751893363,"semimajor_km":6960.8859482011,"source":"CELESTRAK","updated_at":"2026-05-25T13:38:03.585026Z"}}}